Voltar ao catálogo

COSMOS 1860

AtivoMilitarLEO
NORAD 18122·PAYLOAD·🇷🇺 Russia

Lançado Jun 18, 1987 de Baikonur Cosmodrome

Loading…

Próximas Passagens (próximas 24 horas)

TLE

AtualizadoSource: Space-Track

Época: Sep 14, 2026, 03:09 UTC

1 18122U 87052A   26257.13175811 -.00000046  00000-0  37600-4 0  9996
2 18122  65.0102 158.8275 0047352 182.6638 177.4178 13.84973011985139

Acompanhe COSMOS 1860 em tempo real com AllMySat

Download on the App Store